{"data":{"norad_id":48392,"epoch":"2026-05-24T22:55:43.102272Z","epoch_age_seconds":86048,"freshness":"FRESH","line1":"1 48392U 21038AR  26144.95535998  .00003668  00000+0  12982-3 0  9997","line2":"2 48392  53.1600 337.8385 0001149  93.5014 266.6118 15.31718508280343","mean_motion":15.31718508,"eccentricity":0.0001149,"inclination_deg":53.16,"raan_deg":337.8385,"arg_perigee_deg":93.5014,"mean_anomaly_deg":266.6118,"bstar":0.00012982,"rev_number":28034,"period_min":94.012051984685,"perigee_km":469.89789476864,"apogee_km":471.47175402389,"semimajor_km":6848.8218243963,"source":"CELESTRAK","updated_at":"2026-05-25T13:38:16.710175Z"}}